Resolute,

8:27 AM CDT on July 27, 2017 (GMT -0500)
Resolute

Weather History for CYRB - February, 2013

Change the Weather History Date:

Monday, February 4, 2013

  Actual Average Record
Temperature  
Mean Temperature -33 °F -  
Max Temperature -29 °F -21 °F 3 °F (2014)
Min Temperature -37 °F -34 °F -45 °F (2008)
Degree Days  
Heating Degree Days 98    
Moisture  
Dew Point -44 °F    
Average Humidity 51    
Maximum Humidity 61    
Minimum Humidity 31    
Precipitation  
Precipitation 0.00 in 0.00 in - ()
Sea Level Pressure  
Sea Level Pressure 29.82 in    
Wind  
Wind Speed 3 mph ()    
Max Wind Speed 12 mph    
Max Gust Speed -    
Visibility 15.0 miles    
Events Snow    
Averages and records for this station are not official NWS values.
T = Trace of Precipitation, MM = Missing Value Source: Averaged Metar Reports

Daily Weather History Graph

Daily Weather History Graph

Search for Another Location

Airport or City:

Trip Planner

Search our weather history database for the weather conditions in past years. The results will help you decide how hot, cold, wet, or windy it might be!

Date:

Astronomy

Feb. 04, 2013 Rise Set
Actual Time 12:06 PM CST 1:02 PM CST
Civil Twilight 9:13 AM CST 3:56 PM CST
Nautical Twilight 7:27 AM CST 5:41 PM CST
Astronomical Twilight 5:55 AM CST 7:14 PM CST
Moon No Moon Rise No Moon Set
Length of Visible Light 6h 43m
Length of Day
0h 56m
Last Quarter, 37% of the Moon is Illuminated
Feb 4
Last Quarter
Feb 10
New
Feb 17
First Quarter
Feb 25
Full
Mar 4
Last Quarter

Hourly Weather History & Observations

Time (CST) Temp. Windchill Dew Point Humidity Pressure Visibility Wind Dir Wind Speed Gust Speed Precip Events Conditions
12:00 AM -34 °F - -45 °F 34% 29.60 in 15 mi Calm Calm - -   Partly Cloudy
12:00 AM -34.6 °F - -45.4 °F 55% 29.60 in 15.0 mi Calm Calm - N/A   Clear
1:00 AM -34.6 °F - -45.4 °F 55% 29.60 in 15.0 mi Calm Calm - N/A   Clear
2:00 AM -34.6 °F - -45.4 °F 55% 29.62 in 15.0 mi West 2.3 mph - N/A   Clear
3:00 AM -32.8 °F - -45.4 °F 50% 29.64 in 15.0 mi Calm Calm - N/A   Partly Cloudy
5:00 AM -34.6 °F - -45.4 °F 55% 29.67 in 15.0 mi Calm Calm - N/A Snow Light Snow
6:00 AM -35 °F - -47 °F 31% 29.69 in 15 mi Calm Calm - - Snow Light Snow
6:00 AM -34.6 °F - -47.2 °F 50% 29.69 in 15.0 mi Calm Calm - N/A Snow Light Snow
7:00 AM -34.6 °F -50.3 °F -45.4 °F 55% 29.71 in 15.0 mi SE 4.6 mph - N/A Snow Light Snow
7:39 AM - - - N/A% - 15.0 mi SSE 3.5 mph - N/A   Partly Cloudy
8:00 AM -36.4 °F -54.8 °F -45.4 °F 61% 29.73 in 15.0 mi SE 5.8 mph - N/A   Partly Cloudy
9:00 AM -34.6 °F -52.6 °F -45.4 °F 55% 29.75 in 15.0 mi SE 5.8 mph - N/A   Partly Cloudy
10:00 AM -34.6 °F -50.3 °F -45.4 °F 55% 29.77 in 15.0 mi SE 4.6 mph - N/A   Partly Cloudy
11:00 AM -32.8 °F -50.5 °F -45.4 °F 50% 29.80 in 15.0 mi South 5.8 mph - N/A   Partly Cloudy
12:00 PM -33 °F - -44 °F 33% 29.82 in 15 mi SSE 4.6 mph - - Snow Snow
12:00 PM -32.8 °F -48.2 °F -43.6 °F 56% 29.82 in 15.0 mi SSE 4.6 mph - N/A   Partly Cloudy
1:00 PM -34.6 °F -50.3 °F -45.4 °F 55% 29.84 in 15.0 mi SSE 4.6 mph - N/A   Partly Cloudy
2:00 PM -32.8 °F -50.5 °F -43.6 °F 56% 29.87 in 15.0 mi SE 5.8 mph - N/A   Partly Cloudy
3:00 PM -32.8 °F -54.1 °F -43.6 °F 56% 29.90 in 15.0 mi SE 8.1 mph - N/A   Partly Cloudy
4:00 PM -31.0 °F -53.4 °F -43.6 °F 51% 29.93 in 15.0 mi SE 9.2 mph - N/A   Partly Cloudy
5:00 PM -31.0 °F -51.9 °F -41.8 °F 56% 29.94 in 15.0 mi SSE 8.1 mph - N/A   Partly Cloudy
6:00 PM -30 °F - -42 °F 33% 29.96 in 15 mi SE 9.2 mph - - Snow Snow
6:00 PM -29.2 °F -51.2 °F -41.8 °F 51% 29.96 in 15.0 mi SE 9.2 mph - N/A   Partly Cloudy
7:00 PM -31.0 °F -50.3 °F -43.6 °F 51% 29.98 in 15.0 mi South 6.9 mph - N/A   Partly Cloudy
8:00 PM -32.8 °F -58.2 °F -43.6 °F 56% 30.00 in 15.0 mi SSW 11.5 mph - N/A   Partly Cloudy
9:00 PM -32.8 °F -52.4 °F -43.6 °F 56% 30.03 in 15.0 mi South 6.9 mph - N/A   Partly Cloudy
10:00 PM -31.0 °F -50.3 °F -43.6 °F 51% 30.05 in 15.0 mi SSE 6.9 mph - N/A   Clear
11:00 PM -32.8 °F -45.3 °F -43.6 °F 56% 30.07 in 15.0 mi SE 3.5 mph - N/A   Clear